Voltar ao catálogo

STARLINK-36690

AtivoComunicaçõesVLEO
NORAD 67913·PAYLOAD·🇺🇸 United States

Lançado Feb 22, 2026 de Vandenberg Space Force Base

Loading…

Próximas Passagens (próximas 24 horas)

TLE

AtualizadoSource: CelesTrak SupGP

Época: Sep 14, 2026, 23:23 UTC

1 67913C 26036K   26257.97479167  .00033980  00000+0  12307-2 0  2579
2 67913  43.0023 256.2116 0001342 265.4128  21.1390 15.27561811    15

Acompanhe STARLINK-36690 em tempo real com AllMySat

Download on the App Store